This is the latest recevied weather packets stored in our database for station/object WA6ODQ-13. If no packets are shown the sender has not sent any weather packets the latest 10 day(s).
| Time | Temp. | Humidity | Pressure | Rain* | Wind** | Luminosity | Snow |
|---|---|---|---|---|---|---|---|
| 1777769337 | 18.89° C | 67% | 1007.9 hPa | 0 mm | - | 171 W/m² | - |
| 1777769034 | 18.89° C | 68% | 1007.8 hPa | 0 mm | - | 170 W/m² | - |
| 1777768732 | 18.89° C | 68% | 1007.9 hPa | 0 mm | - | 149 W/m² | - |
| 1777768428 | 18.89° C | 68% | 1007.6 hPa | 0 mm | - | 196 W/m² | - |
| 1777768125 | 18.89° C | 68% | 1007.9 hPa | 0 mm | - | 227 W/m² | - |
| 1777767823 | 18.89° C | 69% | 1007.9 hPa | 0 mm | - | 228 W/m² | - |
| 1777767518 | 18.89° C | 68% | 1008.1 hPa | 0 mm | - | 210 W/m² | - |
| 1777767215 | 18.89° C | 68% | 1008.2 hPa | 0 mm | - | 223 W/m² | - |
| 1777766913 | 18.89° C | 67% | 1008.2 hPa | 0 mm | - | 215 W/m² | - |
| 1777766610 | 19.44° C | 65% | 1008.2 hPa | 0 mm | - | 248 W/m² | - |
| 1777766307 | 19.44° C | 66% | 1008.2 hPa | 0 mm | - | 308 W/m² | - |
| 1777766004 | 19.44° C | 67% | 1008.2 hPa | 0 mm | - | 235 W/m² | - |
| 1777765701 | 19.44° C | 67% | 1008.2 hPa | 0 mm | - | 341 W/m² | - |
| 1777765398 | 19.44° C | 67% | 1008.4 hPa | 0 mm | - | 291 W/m² | - |
| 1777765094 | 20° C | 66% | 1008.3 hPa | 0 mm | - | 419 W/m² | - |
| 1777764791 | 20° C | 65% | 1008.6 hPa | 0 mm | - | 358 W/m² | - |
| 1777764488 | 20° C | 65% | 1008.8 hPa | 0 mm | - | 455 W/m² | - |
| 1777764184 | 20° C | 65% | 1008.5 hPa | 0 mm | - | 366 W/m² | - |
| 1777763880 | 20.56° C | 64% | 1008.6 hPa | 0 mm | - | 483 W/m² | - |
| 1777763578 | 20.56° C | 64% | 1008.5 hPa | 0 mm | - | 392 W/m² | - |
| 1777763276 | 20.56° C | 64% | 1008.7 hPa | 0 mm | - | 493 W/m² | - |
| 1777762974 | 20° C | 66% | 1008.7 hPa | 0 mm | - | 434 W/m² | - |
| 1777762670 | 20.56° C | 64% | 1009 hPa | 0 mm | - | 365 W/m² | - |
| 1777762368 | 20.56° C | 64% | 1008.8 hPa | 0 mm | - | 459 W/m² | - |
| 1777762064 | 20.56° C | 64% | 1009.1 hPa | 0 mm | - | 584 W/m² | - |
* Rain latest hour (hover to see other rain measurements)
** Current wind speed in m/s (hover to see current wind gust speed)